Regional Weather Roundup
Issued by NWS Green Bay, WI

Home | Current Version | Previous Version | Graphics & Text | Print | Product List | Glossary Off
Versions: 1 2 3 4 5 6 7 8 9 10 11 12 13 14 15 16 17 18 19 20 21 22 23 24 25 26 27 28 29 30 31 32 33 34 35 36 37 38 39 40 41 42 43 44 45 46 47 48 49 50

000
ASUS43 KGRB 041059
RWRGRB

NORTH-CENTRAL AND NORTHEAST WISCONSIN REGIONAL WEATHER ROUNDUP
NATIONAL WEATHER SERVICE GREEN BAY WI
500 AM CST WED MAR 04 2015

WIZ005-009-010>012-018-019-041200-
NORTH CENTRAL WISCONSIN

CITY           SKY/WX    TMP DP  RH WIND       PRES   REMARKS
IRONWOOD       PTCLDY    -2  -8  78 W15G21    29.88R WCI -22
MANITOWISH WTR NOT AVBL
ARBOR VITAE    NOT AVBL
EAGLE RIVER    NOT AVBL
LAND O LAKES   NOT AVBL
RHINELANDER    CLEAR     -1 -10  65 W13G21    29.87R WCI -19
PHILLIPS       CLEAR     -3 -11  70 W5        29.92R WCI -14
ANTIGO         NOT AVBL
TOMAHAWK       NOT AVBL
MERRILL        NOT AVBL
$$

WIZ013-073-041200-
NORTHEAST WISCONSIN

CITY           SKY/WX    TMP DP  RH WIND       PRES   REMARKS
IRON MOUNTAIN  CLEAR      6  -4  63 W13G20    29.85R WCI -10
MARINETTE      CLEAR     12   0  57 NW7       29.90R WCI   2
$$

WIZ017-030-035>037-045-041200-
CENTRAL WISCONSIN

CITY           SKY/WX    TMP DP  RH WIND       PRES   REMARKS
MEDFORD        NOT AVBL
WAUSAU         CLEAR      3  -6  66 NW12      29.92R WCI -13
MOSINEE        CLEAR      3  -4  72 W13       29.95R WCI -14
MARSHFIELD     CLEAR      3  -5  69 NW14      29.96R WCI -15
WISC RAPIDS    CLEAR      5  -6  60 NW12      30.00R WCI -11
STEVENS POINT  NOT AVBL
WAUPACA        NOT AVBL
SHAWANO        NOT AVBL
CLINTONVILLE   PTCLDY    12   1  62 W12       29.94R WCI  -2
$$

WIZ038-039-048-051-041200-
FOX VALLEY

CITY           SKY/WX    TMP DP  RH WIND       PRES   REMARKS
NWS GREEN BAY  PTCLDY    13   3  64 W9        29.94R WCI   1
APPLETON       NOT AVBL
OSHKOSH        CLEAR     11   2  67 W9        29.96R WCI  -2
FOND DU LAC    CLEAR     12   2  64 W12       29.97R WCI  -2
$$

WIZ022-050-052-041200-
EAST CENTRAL WISCONSIN

CITY           SKY/WX    TMP DP  RH WIND       PRES   REMARKS
STURGEON BAY   CLEAR     10   0  61 W13       29.91R WCI  -5
MANITOWOC      NOT AVBL
SHEBOYGAN      CLEAR     14   5  67 NW13      29.94R WCI   0
$$

LMZ563-521-522-541>543-041200-
LAKESHORE

STATION/POSITION TIME  TEMP    WIND        PRES    VSBY  WAVE
                       AIR SEA DIR/SP/G                  HT/PER
                 (UTC) (F)     (DEG/KT/KT) (MB)    (MI)  (FT/S)
SHEBOYGAN LKSHOR 1000   18     290/ 14/ 18 1014.0R
KEWAUNEE LKSHORE 1000   16     300/ 11/ 19 1011.7R
NORTHPORT PIER   1000   15     290/  9/ 15 1010.8R
SISTER BAY LKSHO 1000   11     310/ 13/ 14   N/A
CHAMBERS ISLAND  1000   13     250/  3/ 11 1011.5R
MENOMINEE LKSHOR 1000   13     290/ 10     1012.9R
$$


USA.gov is the U.S. government's official web portal to all federal, state and local government web resources and services.